Lapse_Rate
-1.0 -1.1 -0.7 -0.8 -0.0 0.3 0.6 1.1 2.7 4.0 3.0 1.8 2.4 2.4 3.8 4.5 5.1 6.4 6.3 6.6 7.1 7.7 9.3 9.4 9.4 9.4 9.5 9.5 9.3 9.3 9.2 9.3 9.3 9.0 9.3 9.3 9.2 9.2
-0.1 -0.1 -0.3 0.0 0.6 0.6 0.8 1.4 1.8 3.0 4.3 2.4 2.2 2.2 3.6 4.6 5.7 6.5 5.7 6.6 6.7 7.4 8.9 9.4 9.4 9.4 9.4 9.4 9.4 9.3 9.3 9.2 9.2 9.2 9.2 9.2 9.4 9.2
0.4 1.0 1.3 0.9 1.0 1.0 1.1 1.5 2.0 2.2 3.4 4.0 3.2 3.6 3.5 3.7 4.7 5.0 4.9 5.5 5.9 6.4 8.5 9.3 9.4 9.4 9.4 9.4 9.4 9.3 9.3 9.1 9.1 9.1 9.3 9.1 9.3 9.3
1.6 1.7 2.0 2.7 1.7 1.5 1.5 1.8 2.0 2.3 3.2 4.7 4.7 4.6 5.0 5.3 5.3 5.0 6.1 6.0 6.4 6.3 7.3 9.3 9.3 9.4 9.4 9.3 9.2 9.2 9.3 9.4 9.2 9.3 9.5 9.5 9.2 9.1
1.5 2.0 2.1 1.7 1.6 1.7 1.7 1.8 2.5 4.6 3.7 4.8 5.9 5.5 5.4 5.3 5.7 5.9 6.5 6.4 6.2 7.1 8.0 7.5 7.6 8.7 9.2 9.3 9.4 9.3 9.3 9.4 9.3 9.3 9.4 9.3 9.1 9.1
1.5 2.1 2.0 2.0 2.1 2.1 2.9 3.3 4.6 4.1 4.2 5.1 5.6 5.2 4.6 6.1 6.5 6.7 6.8 6.6 6.2 6.7 6.8 7.1 7.8 8.4 8.4 7.8 7.3 7.6 7.4 8.9 9.3 9.3 9.3 9.1 9.1 9.2
1.6 1.7 1.9 2.9 5.3 6.3 7.0 5.1 5.1 4.9 5.0 4.4 5.7 4.9 5.8 7.0 6.7 6.7 6.9 6.5 6.5 6.1 6.0 5.7 5.1 5.8 4.7 5.5 6.1 6.2 6.1 8.9 9.1 9.0 9.1 9.1 9.0 9.0
1.0 0.6 1.2 3.3 3.7 6.5 7.4 8.3 9.1 7.2 4.3 3.2 6.6 6.7 6.7 6.4 6.7 6.7 6.6 6.2 7.2 6.5 5.8 6.6 5.7 5.6 4.9 5.0 5.8 6.6 8.1 9.1 9.1 9.0 8.8 8.9 8.9 9.0
0.5 0.9 2.0 4.0 4.1 3.2 5.4 8.4 8.5 9.4 9.4 8.4 7.0 6.5 6.3 6.3 6.6 5.7 6.0 6.5 7.4 6.0 6.4 7.1 5.1 4.5 4.7 5.4 5.6 5.8 6.3 7.3 9.0 9.1 8.9 9.0 9.1 9.0
1.5 1.9 2.5 2.6 3.0 6.0 6.5 5.4 5.4 5.8 6.2 6.4 6.4 6.9 7.0 6.9 6.7 7.4 7.3 7.0 6.7 6.0 5.3 6.8 5.7 5.2 5.5 4.6 4.9 5.2 6.1 6.9 9.0 9.3 9.3 9.3 9.1 8.8
2.3 2.9 3.5 3.7 6.1 9.3 7.8 6.0 6.4 6.1 7.5 8.5 8.8 9.1 9.1 9.1 8.7 7.8 5.7 6.2 5.9 5.9 5.0 6.4 5.1 5.6 5.1 4.4 3.9 5.0 6.4 7.2 7.3 7.2 7.5 8.9 9.2 8.9
2.4 2.9 5.0 5.9 8.0 9.4 8.3 6.8 6.5 6.5 6.4 6.3 5.8 5.5 5.9 4.8 6.5 5.9 4.7 5.8 6.0 6.7 5.3 5.3 6.1 6.4 6.5 4.5 3.9 3.7 3.8 4.5 5.6 6.5 6.9 7.1 7.2 8.0
3.3 3.7 4.0 6.9 9.3 9.4 9.4 6.7 7.1 8.5 7.1 5.6 5.1 4.6 4.4 4.2 4.4 4.3 4.2 4.5 5.3 5.4 4.8 6.4 6.1 6.1 6.9 6.1 5.2 4.1 4.2 3.8 3.9 3.9 5.0 5.5 6.1 6.7
4.3 4.1 4.6 8.6 9.3 7.9 7.1 7.6 9.3 8.5 5.0 4.8 4.3 3.9 4.0 3.5 3.1 3.4 3.9 3.9 4.5 4.1 3.6 4.1 5.0 4.6 5.4 6.1 6.1 4.5 4.2 4.1 3.9 3.1 3.5 4.4 5.7 6.5
5.1 7.2 8.2 7.8 7.1 5.8 6.4 7.3 7.0 4.7 4.4 3.7 3.8 3.8 3.5 3.1 2.7 2.8 3.0 3.3 2.8 2.5 3.0 3.5 4.4 4.6 5.2 5.6 5.9 4.9 5.0 4.0 4.1 3.9 4.1 3.6 4.6 5.0
6.4 3.3 6.0 6.1 5.9 5.9 5.0 4.7 4.5 4.5 4.6 4.7 3.7 3.2 2.9 2.8 2.8 3.1 3.1 3.8 4.2 3.1 3.1 3.7 3.3 4.2 4.6 4.7 5.1 4.9 4.7 7.0 5.0 4.5 4.4 4.8 5.0 6.3
6.0 3.8 3.7 3.7 3.4 3.5 3.8 4.0 3.9 3.8 3.3 3.1 2.9 2.8 2.8 3.2 3.1 3.2 3.4 3.8 4.3 4.1 3.2 2.8 3.5 3.8 3.9 4.2 4.6 4.1 4.6 5.0 4.6 4.9 5.5 6.4 6.7 6.5
4.3 3.9 3.6 3.5 3.5 3.6 3.4 3.0 2.9 2.9 2.6 2.6 2.3 2.4 2.8 3.0 3.3 3.7 4.5 4.1 3.9 3.6 3.4 3.4 3.6 3.8 4.1 5.0 5.7 4.1 4.5 5.3 5.4 6.0 6.7 6.9 6.8 6.2
3.9 3.6 3.3 3.3 3.2 3.2 2.9 2.5 1.9 2.0 1.8 1.7 1.8 2.3 2.6 3.3 4.1 3.0 3.6 4.1 4.1 3.9 3.7 3.8 4.0 5.2 6.0 6.4 5.3 8.3 6.7 5.7 5.8 5.8 5.6 6.1 6.8 6.5
3.2 3.1 3.0 3.2 3.1 2.8 2.5 2.2 1.8 1.6 1.7 1.3 2.2 2.7 2.1 2.3 2.6 3.1 3.8 4.1 4.2 4.8 5.3 5.1 4.7 4.6 5.3 5.8 6.4 5.2 6.0 5.8 5.8 5.7 5.4 5.6 6.0 6.9
3.2 3.0 3.1 3.0 2.8 2.5 2.3 1.8 1.4 1.3 2.4 2.3 1.2 1.5 1.9 2.5 2.6 3.4 3.9 5.4 6.2 5.4 5.1 5.1 5.4 6.7 5.3 4.9 6.2 6.1 5.6 6.8 6.7 5.9 6.0 6.5 6.0 5.5
3.5 3.1 3.0 2.8 2.6 2.1 1.7 1.3 1.0 1.2 1.0 1.2 1.5 1.9 2.5 3.0 3.1 3.8 4.4 4.9 5.2 5.7 5.8 5.6 5.4 5.4 5.2 6.0 6.3 6.1 5.7 5.7 5.8 6.3 6.3 5.8 6.0 6.5
3.1 3.2 2.9 2.5 2.1 1.7 1.5 1.2 1.2 1.1 1.0 1.4 1.7 2.4 3.2 3.4 4.0 4.6 4.6 4.7 5.9 6.5 6.4 5.7 5.6 5.7 5.8 5.9 6.4 6.2 5.8 5.7 5.9 5.3 4.7 6.4 7.2 7.7
Wind_Speed
3 4 2 2 2 3 2 3 3 2 3 2 3 3 11 15 15 19 17 22 27 28 27 28 28 28 28 29 27 28 30 31 33 31 33 34 34 34
2 3 2 2 2 2 2 2 3 3 3 3 3 3 10 13 17 20 20 25 25 27 27 27 28 28 28 29 31 30 30 31 32 31 33 33 33 34
3 2 3 3 2 2 2 2 2 3 5 4 3 4 4 8 13 17 18 19 20 26 28 28 28 28 30 30 30 30 30 30 32 32 32 32 33 33
3 2 3 2 2 3 2 4 3 4 4 10 4 3 6 7 7 10 13 18 20 24 28 28 30 30 30 28 28 29 30 31 30 32 33 33 32 32
1 2 3 1 3 3 3 4 4 4 4 5 8 3 4 4 8 7 8 10 17 22 26 28 29 27 27 28 31 31 31 31 31 31 32 31 30 31
3 2 3 2 4 4 4 6 5 4 4 6 7 5 4 6 6 8 10 8 10 15 22 26 26 25 28 32 31 31 30 29 29 30 31 30 31 32
2 3 3 5 9 9 4 4 4 4 4 5 6 4 6 9 10 8 10 10 10 10 9 6 4 11 18 24 25 29 29 28 29 31 32 31 30 30
3 5 5 7 7 11 14 16 14 6 3 2 6 9 10 9 9 9 10 11 9 7 3 11 11 10 10 16 24 30 32 31 30 30 30 30 29 28
3 4 4 3 8 6 11 15 14 17 17 12 10 9 11 11 11 12 11 8 10 11 10 12 10 12 10 16 27 31 32 31 28 27 26 26 26 27
3 3 4 6 6 9 6 6 6 6 8 7 8 10 11 11 11 10 11 10 9 9 9 10 10 12 10 11 28 32 28 25 25 26 28 28 27 26
4 5 5 6 12 17 9 5 6 6 12 21 22 23 24 27 23 9 7 8 11 10 10 9 5 10 11 12 13 24 22 23 28 29 28 26 26 26
4 4 10 11 16 17 11 6 6 8 9 7 6 11 15 15 21 8 6 8 9 8 3 2 8 6 6 3 3 6 9 22 26 27 28 26 25 11
3 4 4 16 18 20 19 5 8 12 7 6 7 7 8 8 7 6 6 7 9 10 13 9 6 8 7 8 5 9 9 12 10 13 22 24 23 18
4 4 6 16 19 18 13 18 18 14 6 6 7 8 8 8 8 8 12 12 14 15 16 12 7 9 11 12 12 9 10 10 10 10 9 16 22 22
4 10 16 16 16 11 15 16 14 5 6 6 7 8 7 8 11 10 10 15 12 17 18 14 10 12 10 12 12 13 14 10 11 11 8 7 9 9
9 4 10 12 12 11 9 8 5 5 6 7 8 9 9 8 9 8 9 9 10 10 13 15 10 11 11 11 12 14 13 10 11 12 11 10 11 10
8 3 4 5 6 6 6 6 6 6 6 7 7 9 9 9 9 9 9 9 9 10 11 11 9 10 11 15 13 13 13 13 12 12 12 12 11 11
3 4 5 5 6 7 7 8 7 10 7 8 8 8 9 9 10 9 8 9 10 11 11 11 10 10 9 10 21 13 13 11 12 12 11 12 12 11
3 4 5 5 6 6 6 7 9 8 9 7 8 9 9 9 13 10 9 9 10 10 11 10 10 9 11 13 9 18 11 13 12 13 11 11 13 13
2 4 5 6 6 6 7 7 8 8 8 8 8 8 9 9 10 10 10 10 11 11 11 10 9 9 10 12 15 16 17 10 9 12 13 11 13 26
5 5 5 6 6 7 7 7 8 8 10 9 9 9 9 8 10 10 11 20 19 11 12 11 11 24 11 11 9 13 11 15 16 13 12 11 13 13
5 6 6 6 7 7 7 7 8 9 8 8 9 9 9 8 10 11 11 11 12 11 12 11 12 10 10 10 13 16 12 12 16 20 22 22 10 6
6 7 7 7 7 7 7 7 8 9 9 9 8 9 10 10 10 10 11 11 10 10 11 11 11 10 10 10 14 11 17 15 11 13 12 18 18 20
Wind_Direction
144 123 129 118 130 152 148 145 164 276 275 292 278 278 323 314 304 310 305 305 307 306 303 302 300 301 299 294 297 293 294 291 286 290 286 283 282 280
133 136 118 128 160 167 169 170 185 199 249 229 262 282 299 300 301 310 302 307 303 303 302 300 300 298 297 299 295 293 292 289 290 289 286 285 284 282
126 166 187 167 187 207 186 194 223 187 247 275 249 278 287 285 290 292 295 293 293 298 302 303 300 300 300 297 297 293 290 291 287 287 286 286 285 285
170 211 237 204 210 233 231 240 234 237 228 276 269 264 246 267 270 276 282 285 288 292 299 300 300 300 299 297 294 295 293 291 291 291 289 287 285 285
82 273 284 237 266 256 250 252 245 255 249 270 288 259 267 275 285 271 278 282 281 287 295 295 295 297 293 296 298 296 293 291 290 288 285 283 281 280
26 317 317 263 246 258 252 252 256 257 263 273 279 279 260 275 285 297 299 294 294 292 288 286 288 289 293 296 294 294 292 289 287 283 280 280 279 278
344 334 333 306 296 291 279 258 252 256 264 268 277 271 288 301 303 302 293 297 294 290 279 277 272 281 285 287 287 288 290 285 284 284 283 282 279 279
342 347 345 331 330 323 313 305 299 287 257 219 286 290 293 295 297 293 293 298 301 287 323 301 294 286 283 280 283 287 291 292 289 285 283 281 280 275
6 353 344 330 320 300 303 298 300 296 294 302 295 284 290 289 289 287 281 277 289 294 297 292 292 286 283 282 287 289 292 292 290 287 285 281 282 285
335 321 302 297 304 302 275 263 266 270 276 278 270 279 271 275 273 286 296 291 285 285 286 284 289 284 287 281 283 288 286 287 289 290 292 288 284 281
316 310 301 296 305 313 309 283 278 270 280 294 297 300 302 301 300 304 290 296 292 291 289 288 277 290 290 279 271 273 278 286 292 291 290 285 283 281
303 291 314 323 319 314 323 313 306 297 286 290 295 295 292 282 294 290 278 280 289 298 253 273 298 302 301 228 260 268 279 278 284 286 287 286 283 279
303 317 308 320 316 328 322 329 297 305 335 314 304 298 296 293 290 283 269 264 281 270 278 293 289 285 271 292 276 286 283 283 280 280 282 282 282 276
306 294 287 310 330 325 325 313 315 328 320 308 304 300 299 299 298 295 287 278 267 267 281 275 272 274 279 285 289 290 284 284 279 275 273 274 278 279
289 308 332 328 326 324 312 321 327 313 303 302 297 295 294 293 294 291 283 282 272 272 274 271 262 273 269 275 281 284 287 291 283 274 269 259 267 270
309 341 336 334 327 319 320 312 306 300 296 298 295 295 298 300 295 293 294 297 290 288 283 274 260 262 270 267 271 277 279 278 286 283 277 275 271 260
356 349 331 329 326 323 319 314 312 307 304 302 298 302 300 298 295 298 291 291 284 296 297 296 277 256 256 263 273 272 274 276 274 273 274 272 270 265
360 330 323 318 314 315 316 315 310 309 301 302 301 296 297 298 298 297 294 292 290 292 291 291 294 295 283 258 239 265 271 268 276 274 270 274 276 270
337 318 305 306 306 306 306 305 305 305 301 297 295 294 294 294 305 299 296 292 291 288 285 285 283 281 294 292 283 259 267 280 285 284 276 266 269 274
285 293 300 303 303 303 301 300 301 302 301 297 294 298 296 292 299 297 296 295 292 290 293 293 287 279 274 283 294 296 277 271 271 275 279 276 269 269
309 307 302 300 298 296 295 295 292 294 300 306 297 293 295 295 294 294 294 300 303 300 297 298 296 295 290 286 284 289 295 278 266 268 276 278 283 287
307 305 303 299 294 292 293 294 295 297 299 296 292 293 294 292 292 295 297 299 299 296 294 293 299 301 296 290 292 295 296 301 293 283 274 268 271 269
307 304 304 299 295 293 293 294 296 296 294 294 294 296 299 299 296 294 294 290 294 303 308 306 306 304 299 299 297 297 297 302 307 312 305 289 277 276